Location: Mount Kobau Star Party
(49.1167°N, 119.7333°W)
Time: 11:38:38
(UTC-07:00)

ARIANE 6 FM1 Upper Stage - Pass Details

Date: 14 April 2026
Orbit: 526 x 601 km, 62.0° (Epoch: 18 May)

Event Time Altitude Azimuth Distance (km) Brightness Sun altitude
Rises 20:53:00 0° 250° (WSW) 2,720 6.8 -10.3°
Reaches altitude 10° 20:55:24 10° 260° (W) 1,816 6.1 -10.7°
Maximum altitude 20:59:08 34° 326° (NW) 907 4.4 -11.2°
Drops below altitude 10° 21:02:49 10° 33° (NNE) 1,790 5.2 -11.7°
Sets 21:05:10 0° 43° (NE) 2,676 6.0 -12.1°
